Back to catalog

STARLINK-1477

AliveCommunicationsVLEO
NORAD 45754·PAYLOAD·🇺🇸 United States

Launched Jun 13, 2020 from Cape Canaveral Space Force Station

Loading…

Next Passes (next 24 hours)

TLE

FreshSource: CelesTrak SupGP

Epoch: Sep 14, 2026, 14:06 UTC

1 45754C 20038AA  26257.58798611 -.00006269  00000+0 -25742-3 0  2579
2 45754  53.0225  67.9943 0002545 139.9250 238.7762 15.23679707    10

Track STARLINK-1477 in real time with AllMySat

Download on the App Store